Regional Weather Roundup
Issued by NWS Northern Indiana

Home | Current Version | Previous Version | Graphics & Text | Print | Product List | Glossary On
Versions: 1 2 3 4 5 6 7 8 9 10 11 12 13 14 15 16 17 18 19 20 21 22 23 24 25 26 27 28 29 30 31 32 33 34 35 36 37 38 39 40 41 42 43 44 45 46 47 48 49 50
969
ASUS43 KIWX 011400
RWRIWX

KIWX WEATHER ROUNDUP
NATIONAL WEATHER SERVICE NORTHERN INDIANA
1000 AM EDT SAT OCT 01 2016

NOTE: "FAIR" INDICATES FEW OR NO CLOUDS BELOW 12,000 FEET WITH NO
SIGNIFICANT WEATHER AND/OR OBSTRUCTIONS TO VISIBILITY.

* THESE STATIONS ARE NOT UNDER NWS QUALITY CONTROL. THEY ALSO MAY NOT
  REPORT WEATHER SUCH AS PRECIPITATION OR FOG.

INZ001>027-011500-
NORTHERN INDIANA

CITY           SKY/WX    TMP DP  RH WIND       PRES   REMARKS
GARY*          LGT RAIN  61  61 100 CALM      30.01S
KNOX*          CLOUDY    57  52  82 NE3       30.00R
SOUTH BEND     CLOUDY    59  58  96 NE8       30.00F
GOSHEN         CLOUDY    61  57  87 SE7       30.00S
MONTICELLO*    CLOUDY    58  55  87 SW5       30.00R
ANGOLA*          N/A     61  52  72 SE7       30.02S
FORT WAYNE     CLOUDY    57  55  93 S9        30.03S

$$
INZ028>050-011500-
CENTRAL INDIANA

CITY           SKY/WX    TMP DP  RH WIND       PRES   REMARKS
LAFAYETTE      CLOUDY    57  57 100 S5        30.01R FOG
KOKOMO*        LGT RAIN  56  54  93 S9        30.03S
MUNCIE*        CLOUDY    58  54  86 S5        30.04R
INDIANAPOLIS   FOG       53  53 100 SE9       30.03R VSB 1/2

$$
MIZ043>046-050>051-056>058-064>065-071>073-077>080-011500-
SOUTHWEST LOWER MICHIGAN

CITY           SKY/WX    TMP DP  RH WIND       PRES   REMARKS
BATTLE CREEK   CLOUDY    59  58  96 E6        30.04S FOG
BENTON HARBOR  CLOUDY    60  57  89 NE7       30.02R
COLDWATER*     CLOUDY    62  60  93 SE12      30.03S
HILLSDALE*     CLOUDY    59  55  88 SE5       30.04S FOG
HOLLAND        LGT RAIN  58  57  97 NE6       30.04F FOG
GRAND RAPIDS   LGT RAIN  58  56  93 E8        30.05S
KALAMAZOO      LGT RAIN  59  56  89 E5        30.04S VSB 1
STURGIS*       CLOUDY    61  58  89 SE7       30.01S
THREE RIVERS*  CLOUDY    60  59  98 E8        30.02S

$$
OHZ001>008-015>018-024>025-011500-
NORTHWEST OHIO

CITY           SKY/WX    TMP DP  RH WIND       PRES   REMARKS
DEFIANCE       PTSUNNY   62  56  80 S6        30.05R
FINDLAY        MOSUNNY   58  54  86 S7        30.05S
TOLEDO EXPRESS SUNNY     59  59 100 S3        30.05R
TOLEDO METCALF MOSUNNY   62  58  86 S6        30.07R
LIMA           MOSUNNY   58  55  90 SE6       30.06R

$$
AND FOR LAKE MICHIGAN COASTAL AND OPEN LAKE BUOY OBSERVATIONS

STATION/POSITION TEMP    WIND        PRES    VSBY  WAVE
                 AIR SEA DIR/SP/G                  HT/PER
                 (F)     (DEG/KT/KT) (MB)    (MI)  (FT/S)
CALUMET HARBOR    57     130/  2/  6 1015.9F
MICHIGAN CITY     60      40/  4/  5   N/A
BURNS HARBOR      61      60/ 10/ 13 1016.6R
SAINT JOSEPH      60      30/  4/  8 1016.6
SOUTH LAKE BUOY   61 67   60/ 16/ 19 1016.5          3/ 4
4 MI NW BRIDGMAN  53 51   20/ 10/ 12 1016.6S         3/ 6
MICHIGAN CITY     60 64   40/ 10/ 14   N/A           4/ 5

$$
&&




USA.gov is the U.S. government's official web portal to all federal, state and local government web resources and services.